Location: Seattle
(47.6064°N, 122.3308°W)
Time: 15:54:26
(UTC-07:00)

CAS-6 - Visible Passes

Search period start: 22 March 2023 00:00
Search period end: 01 April 2023 00:00
Orbit: 611 x 632 km, 97.9° (Epoch: 22 March)

Date Brightness Start Highest point End Pass type
(mag) Time Alt. Az. Time Alt. Az. Time Alt. Az.
22 Mar ? 22:57:03 18° N 22:57:03 18° N 22:58:15 10° N visible
23 Mar ? 23:15:02 18° N 23:15:02 18° N 23:16:15 10° N visible
24 Mar ? 21:55:49 12° NE 21:55:49 12° NE 21:56:30 10° NNE visible
24 Mar ? 23:33:01 18° NNW 23:33:01 18° NNW 23:34:09 10° NNW visible
25 Mar ? 22:13:48 15° NNE 22:13:48 15° NNE 22:15:04 10° NNE visible
25 Mar ? 23:51:00 16° NNW 23:51:00 16° NNW 23:51:57 10° NNW visible
26 Mar ? 22:31:46 19° NNE 22:31:46 19° NNE 22:33:21 10° N visible
27 Mar ? 00:08:58 13° NW 00:08:58 13° NW 00:09:37 10° NNW visible
27 Mar ? 22:49:45 22° NNE 22:49:45 22° NNE 22:51:29 10° N visible
28 Mar ? 00:26:57 11° NW 00:26:57 11° NW 00:27:06 10° NW visible
28 Mar ? 23:07:43 24° N 23:07:43 24° N 23:09:30 10° N visible
29 Mar ? 21:48:29 12° NE 21:48:29 12° NE 21:49:24 10° NNE visible
29 Mar ? 23:25:41 24° NNW 23:25:41 24° NNW 23:27:26 10° NNW visible
30 Mar ? 22:06:27 16° NE 22:06:27 16° NE 22:08:06 10° NNE visible
30 Mar ? 23:43:38 22° NNW 23:43:38 22° NNW 23:45:14 10° NNW visible
31 Mar ? 22:24:24 21° NNE 22:24:24 21° NNE 22:26:27 10° N visible
